When you browse on this site, cookies collect data to enhance your experience and personalize the content and advertising you see.
Visit our Privacy Policy to learn more. By continuing to use the site, you agree to this use of cookies and data.
  • în România
  • Lista ţărilor
  • Pe 7 zile
  • Temperatura apei
  • Hartă satelitară
  • Meteo pe hartă
  • Widget-uri
  • user-avatar
    Intrare

    Meteo pe oră la Newcastle

    Astăzi, 23 Ianuarie, Miercuri

    Timp Temperatura Precipitaţii Vânt Presiune Umiditate
    00:00 +25°C° 0 mm 2 m/s 758 mmHg 84%
    01:00 +24°C° 0 mm 2 m/s 757 mmHg 85%
    02:00 +24°C° 0 mm 2 m/s 757 mmHg 84%
    03:00 +24°C° 0 mm 1 m/s 757 mmHg 83%
    04:00 +24°C° 0 mm 1 m/s 757 mmHg 82%
    05:00 +25°C° 0.1 mm 1 m/s 757 mmHg 81%
    06:00 +26°C° 0.1 mm 1 m/s 757 mmHg 79%
    07:00 +27°C° 0.1 mm 2 m/s 758 mmHg 78%
    08:00 +30°C° 0.1 mm 2 m/s 758 mmHg 65%
    09:00 +34°C° 0.1 mm 2 m/s 758 mmHg 52%
    10:00 +37°C° 0 mm 2 m/s 757 mmHg 40%
    11:00 +37°C° 0.2 mm 4 m/s 757 mmHg 40%
    12:00 +39°C° 0.2 mm 5 m/s 757 mmHg 39%
    13:00 +39°C° 0.2 mm 7 m/s 757 mmHg 39%
    14:00 +36°C° 0 mm 6 m/s 757 mmHg 47%
    15:00 +33°C° 0 mm 6 m/s 757 mmHg 56%
    16:00 +30°C° 0 mm 6 m/s 757 mmHg 64%
    17:00 +28°C° 0 mm 6 m/s 757 mmHg 70%
    18:00 +27°C° 0 mm 5 m/s 758 mmHg 76%
    19:00 +26°C° 0 mm 5 m/s 759 mmHg 82%
    20:00 +25°C° 0 mm 5 m/s 759 mmHg 82%
    21:00 +25°C° 0 mm 4 m/s 760 mmHg 82%
    22:00 +25°C° 0 mm 4 m/s 760 mmHg 82%
    23:00 +23°C° 0 mm 4 m/s 760 mmHg 83%

    Mâine, 24 Ianuarie, Joi

    Timp Temperatura Precipitaţii Vânt Presiune Umiditate
    00:00 +23°C° 0 mm 4 m/s 760 mmHg 83%
    01:00 +23°C° 0 mm 4 m/s 760 mmHg 83%
    02:00 +23°C° 0 mm 5 m/s 760 mmHg 84%
    03:00 +23°C° 0 mm 5 m/s 760 mmHg 85%
    04:00 +23°C° 0 mm 5 m/s 759 mmHg 86%
    05:00 +23°C° 0.1 mm 5 m/s 760 mmHg 87%
    06:00 +23°C° 0.1 mm 4 m/s 760 mmHg 88%
    07:00 +23°C° 0.1 mm 4 m/s 761 mmHg 88%
    08:00 +23°C° 0.1 mm 4 m/s 761 mmHg 89%
    09:00 +23°C° 0.1 mm 4 m/s 761 mmHg 90%
    10:00 +23°C° 0.1 mm 4 m/s 761 mmHg 90%
    11:00 +25°C° 0.1 mm 4 m/s 761 mmHg 89%
    12:00 +25°C° 0.1 mm 4 m/s 760 mmHg 87%
    13:00 +25°C° 0.1 mm 4 m/s 760 mmHg 86%
    14:00 +27°C° 0 mm 4 m/s 760 mmHg 79%
    15:00 +28°C° 0 mm 4 m/s 759 mmHg 73%
    16:00 +30°C° 0 mm 4 m/s 759 mmHg 67%
    17:00 +29°C° 0 mm 4 m/s 759 mmHg 75%
    18:00 +27°C° 0 mm 3 m/s 759 mmHg 82%
    19:00 +26°C° 0 mm 3 m/s 760 mmHg 90%
    20:00 +25°C° 0 mm 2 m/s 760 mmHg 93%
    21:00 +24°C° 0 mm 1 m/s 760 mmHg 96%
    22:00 +24°C° 0 mm 1 m/s 761 mmHg 99%
    23:00 +24°C° 0 mm 1 m/s 761 mmHg 99%

    Poimâine, 25 Ianuarie, Vineri

    Timp Temperatura Precipitaţii Vânt Presiune Umiditate
    00:00 +24°C° 0 mm 1 m/s 760 mmHg 99%
    01:00 +24°C° 0 mm 1 m/s 760 mmHg 99%
    02:00 +24°C° 0 mm 1 m/s 760 mmHg 98%
    03:00 +24°C° 0 mm 1 m/s 760 mmHg 98%
    04:00 +24°C° 0 mm 1 m/s 760 mmHg 98%
    05:00 +24°C° 0 mm 1 m/s 760 mmHg 94%
    06:00 +23°C° 0 mm 0 m/s 760 mmHg 90%
    07:00 +24°C° 0 mm 0 m/s 760 mmHg 86%
    08:00 +28°C° 0 mm 1 m/s 760 mmHg 77%
    09:00 +30°C° 0 mm 1 m/s 759 mmHg 67%
    10:00 +32°C° 0 mm 2 m/s 759 mmHg 58%
    11:00 +35°C° 0 mm 2 m/s 759 mmHg 53%
    12:00 +37°C° 0 mm 3 m/s 758 mmHg 47%
    13:00 +38°C° 0 mm 3 m/s 758 mmHg 41%
    14:00 +38°C° 0 mm 4 m/s 757 mmHg 42%
    15:00 +39°C° 0 mm 5 m/s 756 mmHg 44%
    16:00 +37°C° 0 mm 5 m/s 756 mmHg 45%
    17:00 +35°C° 0 mm 5 m/s 756 mmHg 55%
    18:00 +33°C° 0 mm 5 m/s 756 mmHg 65%
    19:00 +29°C° 0 mm 5 m/s 756 mmHg 75%
    20:00 +29°C° 0 mm 5 m/s 757 mmHg 79%
    21:00 +28°C° 0 mm 4 m/s 757 mmHg 82%
    22:00 +27°C° 0 mm 4 m/s 757 mmHg 86%
    23:00 +26°C° 0 mm 4 m/s 757 mmHg 87%

    26 Ianuarie, Sâmbătă

    Timp Temperatura Precipitaţii Vânt Presiune Umiditate
    00:00 +26°C° 0 mm 3 m/s 756 mmHg 89%
    01:00 +25°C° 0 mm 3 m/s 756 mmHg 90%
    02:00 +25°C° 0 mm 3 m/s 756 mmHg 88%
    03:00 +25°C° 0 mm 3 m/s 756 mmHg 87%
    04:00 +25°C° 0 mm 2 m/s 755 mmHg 85%
    05:00 +27°C° 0 mm 2 m/s 756 mmHg 77%
    06:00 +28°C° 0 mm 2 m/s 756 mmHg 69%
    07:00 +30°C° 0 mm 3 m/s 756 mmHg 61%
    08:00 +34°C° 0 mm 2 m/s 757 mmHg 53%
    09:00 +36°C° 0 mm 2 m/s 757 mmHg 45%
    10:00 +39°C° 0 mm 2 m/s 757 mmHg 37%
    11:00 +41°C° 0 mm 2 m/s 756 mmHg 33%
    12:00 +44°C° 0 mm 3 m/s 756 mmHg 29%
    13:00 +47°C° 0 mm 4 m/s 755 mmHg 25%
    14:00 +46°C° 0 mm 5 m/s 755 mmHg 28%
    15:00 +43°C° 0 mm 5 m/s 754 mmHg 30%
    16:00 +42°C° 0 mm 6 m/s 754 mmHg 33%
    17:00 +40°C° 0 mm 6 m/s 754 mmHg 40%
    18:00 +36°C° 0 mm 6 m/s 754 mmHg 46%
    19:00 +34°C° 0 mm 5 m/s 754 mmHg 53%
    20:00 +33°C° 0 mm 5 m/s 754 mmHg 56%
    21:00 +32°C° 0 mm 5 m/s 755 mmHg 59%
    22:00 +30°C° 0 mm 5 m/s 755 mmHg 62%
    23:00 +29°C° 0 mm 4 m/s 755 mmHg 66%

    27 Ianuarie, Duminică

    Timp Temperatura Precipitaţii Vânt Presiune Umiditate
    00:00 +28°C° 0 mm 3 m/s 755 mmHg 70%
    01:00 +27°C° 0 mm 3 m/s 755 mmHg 73%
    02:00 +27°C° 0 mm 3 m/s 755 mmHg 75%
    03:00 +27°C° 0 mm 2 m/s 755 mmHg 76%
    04:00 +27°C° 0 mm 2 m/s 755 mmHg 77%
    05:00 +27°C° 0 mm 2 m/s 755 mmHg 74%
    06:00 +28°C° 0 mm 2 m/s 755 mmHg 71%
    07:00 +29°C° 0 mm 2 m/s 755 mmHg 68%
    08:00 +32°C° 0 mm 2 m/s 755 mmHg 58%
    09:00 +36°C° 0 mm 2 m/s 756 mmHg 48%
    10:00 +39°C° 0 mm 3 m/s 756 mmHg 38%
    11:00 +42°C° 0 mm 3 m/s 755 mmHg 33%
    12:00 +44°C° 0 mm 3 m/s 755 mmHg 29%
    13:00 +46°C° 0 mm 3 m/s 754 mmHg 24%
    14:00 +44°C° 0 mm 4 m/s 754 mmHg 28%
    15:00 +42°C° 0 mm 5 m/s 754 mmHg 33%
    16:00 +41°C° 0 mm 5 m/s 753 mmHg 37%
    17:00 +39°C° 0 mm 5 m/s 754 mmHg 42%
    18:00 +36°C° 0 mm 4 m/s 755 mmHg 47%
    19:00 +35°C° 0 mm 4 m/s 756 mmHg 52%
    20:00 +32°C° 1 mm 4 m/s 757 mmHg 66%
    21:00 +29°C° 1 mm 5 m/s 757 mmHg 80%
    22:00 +26°C° 1 mm 5 m/s 758 mmHg 93%
    23:00 +26°C° 0.9 mm 5 m/s 758 mmHg 94%

    28 Ianuarie, Luni

    Timp Temperatura Precipitaţii Vânt Presiune Umiditate
    00:00 +26°C° 0.9 mm 5 m/s 758 mmHg 96%
    01:00 +26°C° 0.9 mm 4 m/s 758 mmHg 97%
    02:00 +25°C° 0.3 mm 4 m/s 758 mmHg 97%
    03:00 +25°C° 0.3 mm 3 m/s 757 mmHg 97%
    04:00 +25°C° 0.3 mm 3 m/s 757 mmHg 97%
    05:00 +25°C° 0 mm 3 m/s 758 mmHg 96%
    06:00 +25°C° 0 mm 3 m/s 759 mmHg 94%
    07:00 +26°C° 0 mm 3 m/s 759 mmHg 93%
    08:00 +26°C° 0 mm 3 m/s 759 mmHg 90%
    09:00 +27°C° 0 mm 3 m/s 759 mmHg 86%
    10:00 +27°C° 0 mm 2 m/s 760 mmHg 83%
    11:00 +30°C° 0 mm 2 m/s 759 mmHg 73%
    12:00 +32°C° 0 mm 2 m/s 759 mmHg 64%
    13:00 +35°C° 0 mm 2 m/s 759 mmHg 54%
    14:00 +34°C° 0 mm 2 m/s 759 mmHg 57%
    15:00 +34°C° 0 mm 3 m/s 758 mmHg 60%
    16:00 +33°C° 0 mm 3 m/s 758 mmHg 63%
    17:00 +30°C° 0.2 mm 3 m/s 758 mmHg 72%
    18:00 +29°C° 0.2 mm 3 m/s 759 mmHg 80%
    19:00 +27°C° 0.2 mm 3 m/s 759 mmHg 89%
    20:00 +27°C° 0 mm 3 m/s 759 mmHg 87%
    21:00 +27°C° 0 mm 3 m/s 760 mmHg 86%
    22:00 +26°C° 0 mm 4 m/s 760 mmHg 84%
    23:00 +26°C° 0 mm 3 m/s 760 mmHg 85%
    Arată mai mult